QPF
0.08 0.08 0.09 0.09 0.07 0.05 0.03 0.02 0.03 0.03 0.03 0.03 0.02 0.02 0.02 0.02 0.02 0.02 0.03 0.02 0.02 0.01 0.01 0.01 0.01 0.01 0.02 0.07 0.08 0.06 0.05 0.04 0.04 0.04 0.05 0.04 0.04 0.04
0.06 0.05 0.04 0.03 0.02 0.02 0.02 0.01 0.02 0.03 0.02 0.02 0.02 0.02 0.02 0.01 0.01 0.02 0.02 0.02 0.01 0.01 0.01 0.02 0.01 0.01 0.01 0.01 0.02 0.03 0.03 0.03 0.03 0.03 0.03 0.02 0.02 0.03
0.03 0.03 0.02 0.02 0.02 0.02 0.01 0.02 0.02 0.02 0.02 0.01 0.01 0.01 0.02 0.02 0.02 0.03 0.02 0.03 0.02 0.02 0.02 0.02 0.01 0.01 0.01 0.01 0.01 0.02 0.02 0.02 0.02 0.02 0.03 0.02 0.02 0.02
0.02 0.03 0.03 0.03 0.02 0.02 0.02 0.02 0.02 0.02 0.02 0.01 0.01 0.02 0.02 0.03 0.03 0.03 0.02 0.01 0.01 0.01 0.01 0.01 0.01 0.01 0.01 0.01 0.01 0.02 0.02 0.02 0.02 0.02 0.03 0.03 0.03 0.03
0.03 0.02 0.03 0.04 0.03 0.03 0.02 0.01 0.02 0.02 0.02 0.02 0.02 0.02 0.02 0.03 0.03 0.02 0.02 0.02 0.01 0.01 0.01 0.01 0.01 0.01 0.01 0.01 0.01 0.01 0.02 0.02 0.03 0.04 0.05 0.06 0.05 0.04
0.02 0.03 0.04 0.06 0.06 0.04 0.02 0.02 0.02 0.03 0.03 0.03 0.03 0.03 0.03 0.04 0.03 0.02 0.02 0.01 0.01 0.01 0.01 0.01 0.01 0.01 0.01 0.01 0.01 0.00 0.00 0.01 0.01 0.02 0.03 0.04 0.04 0.03
0.03 0.03 0.04 0.07 0.08 0.06 0.03 0.03 0.03 0.04 0.04 0.04 0.04 0.03 0.03 0.04 0.03 0.02 0.02 0.02 0.02 0.02 0.01 0.01 0.01 0.00 0.01 0.01 0.01 0.00 0.00 0.00 0.01 0.01 0.02 0.04 0.05 0.04
0.04 0.04 0.03 0.05 0.08 0.07 0.05 0.05 0.05 0.04 0.05 0.06 0.05 0.04 0.03 0.04 0.03 0.03 0.03 0.03 0.03 0.03 0.03 0.02 0.01 0.01 0.01 0.01 0.01 0.01 0.00 0.01 0.01 0.02 0.03 0.04 0.04 0.03
0.04 0.04 0.03 0.05 0.10 0.11 0.09 0.07 0.06 0.05 0.04 0.05 0.05 0.04 0.04 0.04 0.03 0.03 0.04 0.04 0.04 0.04 0.04 0.04 0.03 0.02 0.02 0.02 0.02 0.01 0.00 0.01 0.01 0.02 0.02 0.03 0.03 0.02
0.03 0.03 0.03 0.04 0.08 0.12 0.13 0.10 0.07 0.06 0.04 0.03 0.03 0.03 0.03 0.04 0.04 0.04 0.05 0.07 0.07 0.05 0.05 0.05 0.05 0.04 0.04 0.04 0.03 0.01 0.01 0.00 0.00 0.01 0.01 0.02 0.04 0.03
0.04 0.03 0.04 0.04 0.06 0.10 0.11 0.09 0.08 0.07 0.05 0.04 0.03 0.03 0.03 0.04 0.05 0.06 0.07 0.08 0.08 0.07 0.06 0.06 0.06 0.06 0.05 0.05 0.04 0.03 0.02 0.01 0.01 0.01 0.01 0.01 0.03 0.05
0.05 0.05 0.05 0.05 0.05 0.05 0.07 0.09 0.07 0.07 0.06 0.04 0.03 0.03 0.03 0.03 0.04 0.05 0.06 0.06 0.06 0.06 0.06 0.06 0.06 0.06 0.08 0.07 0.06 0.05 0.04 0.03 0.02 0.02 0.02 0.02 0.02 0.05
0.05 0.06 0.07 0.06 0.07 0.06 0.06 0.07 0.06 0.05 0.04 0.04 0.04 0.03 0.02 0.02 0.02 0.02 0.03 0.04 0.04 0.04 0.04 0.06 0.06 0.06 0.07 0.07 0.07 0.08 0.06 0.05 0.04 0.03 0.03 0.02 0.03 0.04
0.06 0.07 0.08 0.07 0.08 0.09 0.06 0.05 0.05 0.04 0.03 0.03 0.03 0.03 0.02 0.02 0.02 0.02 0.02 0.02 0.03 0.03 0.04 0.05 0.06 0.06 0.06 0.06 0.07 0.08 0.06 0.05 0.05 0.03 0.02 0.02 0.03 0.03
0.06 0.07 0.07 0.06 0.06 0.08 0.07 0.05 0.05 0.05 0.04 0.03 0.03 0.03 0.02 0.02 0.02 0.02 0.02 0.03 0.03 0.04 0.04 0.05 0.06 0.07 0.07 0.06 0.06 0.07 0.06 0.03 0.03 0.02 0.02 0.02 0.02 0.03
0.05 0.06 0.06 0.06 0.06 0.06 0.06 0.05 0.04 0.04 0.04 0.03 0.03 0.02 0.02 0.02 0.02 0.02 0.03 0.03 0.04 0.04 0.04 0.05 0.06 0.07 0.08 0.07 0.07 0.07 0.06 0.04 0.03 0.03 0.03 0.03 0.02 0.02
0.05 0.05 0.05 0.04 0.05 0.06 0.06 0.05 0.04 0.04 0.03 0.03 0.03 0.02 0.02 0.01 0.02 0.02 0.03 0.03 0.03 0.03 0.03 0.04 0.06 0.07 0.08 0.08 0.08 0.08 0.07 0.05 0.04 0.03 0.03 0.03 0.02 0.02
0.04 0.03 0.04 0.03 0.04 0.05 0.05 0.04 0.03 0.04 0.04 0.03 0.03 0.02 0.02 0.02 0.03 0.05 0.06 0.07 0.06 0.05 0.05 0.06 0.08 0.09 0.09 0.08 0.08 0.08 0.07 0.05 0.06 0.05 0.03 0.02 0.02 0.02
0.05 0.04 0.03 0.04 0.04 0.04 0.04 0.03 0.03 0.03 0.04 0.04 0.03 0.02 0.03 0.04 0.05 0.07 0.10 0.11 0.10 0.09 0.09 0.09 0.09 0.09 0.09 0.08 0.08 0.08 0.08 0.07 0.06 0.06 0.05 0.04 0.03 0.02
0.07 0.08 0.07 0.07 0.06 0.05 0.05 0.04 0.03 0.03 0.03 0.04 0.04 0.03 0.03 0.04 0.05 0.06 0.07 0.08 0.09 0.09 0.09 0.09 0.09 0.09 0.09 0.08 0.07 0.06 0.06 0.06 0.06 0.05 0.06 0.06 0.04 0.03
0.08 0.08 0.09 0.09 0.07 0.06 0.05 0.04 0.04 0.04 0.05 0.04 0.04 0.04 0.04 0.04 0.05 0.06 0.06 0.07 0.06 0.06 0.08 0.09 0.09 0.08 0.07 0.07 0.07 0.06 0.05 0.05 0.05 0.05 0.05 0.06 0.05 0.03
0.06 0.07 0.07 0.06 0.06 0.06 0.06 0.05 0.03 0.04 0.05 0.06 0.05 0.05 0.05 0.05 0.05 0.05 0.05 0.05 0.05 0.05 0.06 0.07 0.07 0.07 0.08 0.09 0.08 0.07 0.07 0.05 0.04 0.04 0.04 0.04 0.04 0.03
0.04 0.05 0.05 0.06 0.06 0.07 0.07 0.07 0.06 0.05 0.05 0.05 0.05 0.05 0.05 0.04 0.03 0.03 0.04 0.03 0.04 0.04 0.04 0.05 0.06 0.06 0.06 0.07 0.07 0.07 0.07 0.06 0.05 0.04 0.04 0.04 0.04 0.03
MSLP
1016.92 1017.09 1017.22 1017.30 1017.34 1017.33 1017.28 1017.18 1017.05 1016.88 1016.66 1016.41 1016.12 1015.80 1015.46 1015.14 1014.86 1014.64 1014.52 1014.50 1014.57 1014.71 1014.88 1015.00 1015.04 1014.93 1014.64 1014.18 1013.56 1012.85 1012.13 1011.49 1011.02 1010.77 1010.81 1011.15 1011.75 1012.57
1016.50 1016.67 1016.81 1016.91 1016.97 1016.98 1016.94 1016.86 1016.74 1016.58 1016.37 1016.11 1015.81 1015.47 1015.10 1014.74 1014.42 1014.16 1013.99 1013.94 1013.99 1014.12 1014.30 1014.46 1014.56 1014.53 1014.35 1014.00 1013.51 1012.91 1012.30 1011.74 1011.32 1011.10 1011.13 1011.43 1011.97 1012.72
1016.00 1016.18 1016.33 1016.44 1016.52 1016.55 1016.54 1016.49 1016.39 1016.25 1016.06 1015.81 1015.50 1015.15 1014.77 1014.38 1014.02 1013.71 1013.50 1013.39 1013.40 1013.51 1013.68 1013.87 1014.02 1014.08 1014.02 1013.81 1013.47 1013.03 1012.56 1012.12 1011.78 1011.60 1011.63 1011.89 1012.35 1012.99
1015.48 1015.66 1015.81 1015.94 1016.04 1016.10 1016.12 1016.10 1016.04 1015.93 1015.77 1015.54 1015.26 1014.92 1014.53 1014.12 1013.73 1013.38 1013.11 1012.94 1012.89 1012.95 1013.09 1013.27 1013.45 1013.58 1013.63 1013.56 1013.38 1013.11 1012.80 1012.50 1012.26 1012.14 1012.18 1012.39 1012.77 1013.28
1014.98 1015.15 1015.32 1015.46 1015.57 1015.66 1015.72 1015.74 1015.72 1015.66 1015.54 1015.36 1015.11 1014.79 1014.41 1014.00 1013.59 1013.20 1012.87 1012.62 1012.49 1012.48 1012.55 1012.70 1012.88 1013.05 1013.17 1013.22 1013.19 1013.08 1012.93 1012.78 1012.66 1012.61 1012.66 1012.84 1013.14 1013.54
1014.54 1014.72 1014.88 1015.04 1015.17 1015.29 1015.38 1015.44 1015.46 1015.45 1015.38 1015.25 1015.05 1014.77 1014.42 1014.02 1013.59 1013.17 1012.78 1012.46 1012.24 1012.12 1012.11 1012.18 1012.32 1012.49 1012.65 1012.79 1012.87 1012.91 1012.92 1012.90 1012.90 1012.93 1013.01 1013.18 1013.41 1013.72
1014.22 1014.39 1014.56 1014.72 1014.87 1015.01 1015.12 1015.22 1015.28 1015.31 1015.29 1015.21 1015.06 1014.82 1014.51 1014.13 1013.70 1013.25 1012.81 1012.41 1012.09 1011.87 1011.75 1011.73 1011.80 1011.93 1012.09 1012.27 1012.45 1012.60 1012.73 1012.85 1012.95 1013.07 1013.21 1013.38 1013.58 1013.83
1014.03 1014.20 1014.37 1014.54 1014.69 1014.84 1014.97 1015.08 1015.17 1015.22 1015.24 1015.19 1015.08 1014.89 1014.61 1014.25 1013.83 1013.36 1012.88 1012.42 1012.02 1011.69 1011.46 1011.33 1011.31 1011.38 1011.52 1011.72 1011.94 1012.17 1012.41 1012.63 1012.85 1013.05 1013.25 1013.44 1013.64 1013.85
1013.99 1014.16 1014.33 1014.49 1014.64 1014.78 1014.90 1015.01 1015.10 1015.16 1015.18 1015.16 1015.07 1014.90 1014.65 1014.31 1013.90 1013.43 1012.93 1012.42 1011.95 1011.53 1011.20 1010.97 1010.86 1010.86 1010.96 1011.14 1011.39 1011.68 1011.99 1012.30 1012.61 1012.89 1013.15 1013.39 1013.60 1013.81
1014.10 1014.27 1014.43 1014.58 1014.71 1014.82 1014.92 1015.00 1015.06 1015.09 1015.10 1015.06 1014.97 1014.81 1014.57 1014.26 1013.86 1013.39 1012.88 1012.35 1011.83 1011.35 1010.95 1010.64 1010.45 1010.38 1010.43 1010.59 1010.84 1011.16 1011.52 1011.89 1012.27 1012.62 1012.94 1013.22 1013.46 1013.67
1014.31 1014.48 1014.62 1014.75 1014.85 1014.92 1014.97 1015.00 1015.01 1015.00 1014.96 1014.89 1014.78 1014.60 1014.37 1014.05 1013.67 1013.22 1012.71 1012.18 1011.64 1011.13 1010.68 1010.32 1010.07 1009.95 1009.95 1010.08 1010.32 1010.64 1011.02 1011.43 1011.85 1012.25 1012.61 1012.93 1013.19 1013.42
1014.58 1014.73 1014.85 1014.94 1015.00 1015.02 1015.02 1014.99 1014.93 1014.86 1014.76 1014.64 1014.48 1014.29 1014.04 1013.73 1013.35 1012.92 1012.44 1011.92 1011.39 1010.88 1010.41 1010.03 1009.74 1009.58 1009.54 1009.63 1009.84 1010.14 1010.51 1010.93 1011.36 1011.78 1012.17 1012.50 1012.79 1013.02
1014.83 1014.95 1015.03 1015.08 1015.09 1015.06 1015.00 1014.90 1014.78 1014.64 1014.49 1014.31 1014.11 1013.89 1013.62 1013.31 1012.96 1012.55 1012.10 1011.61 1011.11 1010.62 1010.16 1009.77 1009.47 1009.27 1009.19 1009.24 1009.40 1009.67 1010.01 1010.39 1010.81 1011.21 1011.59 1011.93 1012.22 1012.46
1014.98 1015.05 1015.09 1015.09 1015.05 1014.97 1014.85 1014.70 1014.53 1014.34 1014.13 1013.92 1013.69 1013.44 1013.17 1012.87 1012.53 1012.16 1011.74 1011.30 1010.84 1010.39 1009.96 1009.58 1009.27 1009.04 1008.93 1008.92 1009.02 1009.22 1009.50 1009.83 1010.19 1010.55 1010.90 1011.22 1011.50 1011.74
1014.99 1015.00 1014.97 1014.92 1014.83 1014.70 1014.54 1014.35 1014.15 1013.93 1013.70 1013.46 1013.22 1012.97 1012.71 1012.43 1012.12 1011.79 1011.43 1011.04 1010.63 1010.22 1009.83 1009.46 1009.15 1008.91 1008.74 1008.68 1008.70 1008.82 1009.01 1009.25 1009.53 1009.83 1010.13 1010.41 1010.66 1010.89
1014.81 1014.74 1014.65 1014.54 1014.39 1014.22 1014.04 1013.83 1013.62 1013.39 1013.17 1012.94 1012.72 1012.49 1012.26 1012.02 1011.76 1011.48 1011.17 1010.84 1010.50 1010.14 1009.78 1009.44 1009.12 1008.86 1008.65 1008.51 1008.45 1008.47 1008.55 1008.69 1008.88 1009.09 1009.32 1009.55 1009.77 1009.99
1014.47 1014.32 1014.15 1013.96 1013.77 1013.57 1013.36 1013.16 1012.96 1012.76 1012.56 1012.37 1012.19 1012.01 1011.82 1011.63 1011.43 1011.21 1010.97 1010.71 1010.42 1010.12 1009.80 1009.48 1009.17 1008.89 1008.64 1008.43 1008.28 1008.19 1008.17 1008.19 1008.27 1008.39 1008.54 1008.71 1008.90 1009.11
1014.03 1013.78 1013.53 1013.28 1013.03 1012.80 1012.59 1012.39 1012.21 1012.05 1011.90 1011.76 1011.63 1011.51 1011.38 1011.25 1011.12 1010.96 1010.79 1010.60 1010.38 1010.13 1009.86 1009.57 1009.28 1008.98 1008.69 1008.43 1008.20 1008.01 1007.88 1007.79 1007.76 1007.78 1007.85 1007.97 1008.12 1008.31
1013.58 1013.24 1012.90 1012.58 1012.29 1012.03 1011.81 1011.62 1011.47 1011.34 1011.24 1011.15 1011.08 1011.01 1010.94 1010.87 1010.79 1010.70 1010.60 1010.47 1010.31 1010.13 1009.91 1009.66 1009.38 1009.09 1008.78 1008.48 1008.18 1007.92 1007.69 1007.51 1007.38 1007.31 1007.30 1007.35 1007.46 1007.63
1013.21 1012.79 1012.38 1012.00 1011.66 1011.38 1011.14 1010.96 1010.82 1010.72 1010.65 1010.60 1010.56 1010.53 1010.50 1010.47 1010.43 1010.39 1010.34 1010.27 1010.17 1010.04 1009.88 1009.69 1009.45 1009.17 1008.87 1008.55 1008.22 1007.90 1007.60 1007.34 1007.13 1006.98 1006.89 1006.88 1006.95 1007.08
1013.00 1012.52 1012.06 1011.63 1011.26 1010.95 1010.70 1010.51 1010.37 1010.27 1010.20 1010.16 1010.12 1010.10 1010.08 1010.06 1010.04 1010.02 1010.00 1009.97 1009.92 1009.85 1009.75 1009.61 1009.42 1009.19 1008.91 1008.60 1008.26 1007.91 1007.57 1007.26 1006.99 1006.77 1006.62 1006.55 1006.56 1006.65
1012.99 1012.48 1011.99 1011.54 1011.14 1010.82 1010.55 1010.34 1010.18 1010.06 1009.97 1009.89 1009.82 1009.76 1009.71 1009.66 1009.63 1009.60 1009.58 1009.57 1009.56 1009.53 1009.48 1009.40 1009.27 1009.09 1008.86 1008.59 1008.27 1007.93 1007.58 1007.24 1006.93 1006.66 1006.45 1006.32 1006.26 1006.29
1013.16 1012.64 1012.16 1011.71 1011.32 1010.98 1010.70 1010.47 1010.28 1010.11 1009.96 1009.82 1009.68 1009.55 1009.42 1009.31 1009.23 1009.16 1009.11 1009.09 1009.09 1009.09 1009.08 1009.05 1008.98 1008.87 1008.70 1008.48 1008.21 1007.91 1007.57 1007.24 1006.91 1006.61 1006.36 1006.17 1006.05 1006.01
Thickness
5707 5706 5705 5705 5705 5704 5704 5703 5699 5697 5700 5702 5703 5704 5703 5701 5698 5697 5696 5694 5692 5690 5688 5687 5685 5684 5683 5681 5679 5678 5677 5676 5676 5675 5674 5673 5673 5672
5703 5701 5701 5702 5701 5700 5700 5700 5701 5698 5697 5701 5701 5702 5699 5699 5695 5694 5694 5691 5689 5687 5685 5684 5682 5681 5679 5678 5676 5674 5673 5672 5671 5671 5670 5669 5669 5668
5700 5698 5696 5695 5696 5696 5696 5696 5697 5696 5693 5696 5698 5696 5693 5692 5691 5691 5691 5689 5689 5685 5683 5680 5679 5677 5675 5673 5672 5670 5669 5668 5667 5667 5666 5665 5664 5663
5696 5695 5693 5693 5691 5691 5691 5692 5692 5692 5690 5688 5690 5691 5689 5687 5686 5685 5688 5688 5686 5683 5680 5677 5675 5673 5671 5669 5668 5666 5665 5664 5663 5662 5662 5661 5660 5659
5693 5692 5690 5689 5687 5687 5686 5688 5688 5689 5687 5686 5686 5686 5685 5685 5682 5683 5683 5682 5683 5681 5677 5674 5672 5670 5667 5665 5664 5662 5661 5660 5659 5658 5657 5656 5655 5654
5690 5689 5687 5685 5684 5683 5683 5682 5682 5682 5681 5681 5681 5681 5680 5680 5678 5678 5678 5678 5678 5678 5675 5672 5669 5666 5664 5662 5661 5659 5658 5656 5655 5653 5652 5651 5650 5649
5685 5684 5683 5681 5679 5678 5679 5679 5677 5677 5677 5676 5675 5676 5675 5673 5673 5674 5673 5672 5672 5673 5671 5670 5668 5666 5663 5660 5657 5656 5654 5652 5651 5649 5648 5647 5645 5644
5680 5679 5679 5677 5674 5672 5671 5671 5670 5670 5671 5670 5671 5670 5668 5669 5668 5667 5667 5666 5665 5668 5665 5665 5665 5664 5662 5659 5656 5653 5650 5649 5647 5645 5643 5642 5641 5640
5674 5674 5675 5675 5671 5670 5667 5665 5664 5663 5662 5663 5664 5664 5664 5664 5661 5661 5660 5659 5659 5661 5659 5659 5660 5659 5658 5656 5652 5649 5646 5645 5643 5641 5639 5637 5636 5635
5668 5667 5667 5667 5666 5663 5664 5663 5663 5662 5660 5659 5659 5659 5659 5658 5656 5654 5654 5653 5653 5656 5655 5653 5655 5655 5655 5651 5648 5645 5643 5641 5639 5637 5634 5633 5631 5630
5662 5662 5661 5660 5657 5655 5656 5656 5657 5657 5655 5653 5652 5652 5651 5650 5648 5648 5648 5649 5649 5652 5652 5650 5650 5649 5650 5649 5645 5642 5639 5637 5635 5633 5631 5629 5627 5626
5656 5656 5653 5653 5650 5647 5649 5650 5650 5650 5650 5649 5647 5646 5646 5645 5642 5641 5644 5644 5644 5645 5647 5645 5645 5644 5644 5645 5643 5640 5636 5634 5632 5630 5628 5626 5624 5623
5651 5651 5650 5645 5642 5640 5641 5644 5644 5643 5644 5645 5645 5644 5643 5642 5641 5639 5639 5639 5639 5640 5643 5640 5640 5640 5639 5639 5640 5638 5636 5634 5630 5628 5625 5622 5620 5619
5644 5645 5643 5638 5636 5634 5635 5635 5634 5634 5639 5641 5640 5640 5639 5639 5638 5637 5636 5635 5635 5635 5635 5635 5634 5634 5634 5633 5634 5635 5633 5632 5630 5627 5624 5620 5617 5616
5637 5635 5633 5630 5628 5629 5628 5628 5628 5631 5634 5634 5634 5634 5635 5634 5633 5632 5631 5629 5629 5630 5631 5629 5630 5630 5629 5629 5630 5629 5628 5627 5627 5625 5622 5620 5618 5616
5628 5627 5625 5625 5624 5624 5624 5624 5626 5628 5628 5628 5628 5628 5628 5627 5626 5628 5627 5627 5626 5627 5627 5626 5625 5624 5624 5625 5625 5623 5623 5622 5621 5620 5618 5616 5615 5614
5620 5622 5624 5624 5623 5623 5622 5622 5622 5622 5621 5621 5622 5621 5621 5621 5621 5622 5622 5622 5622 5623 5623 5622 5621 5619 5618 5619 5619 5619 5618 5617 5616 5615 5611 5611 5610 5610
5614 5618 5619 5619 5618 5618 5618 5617 5617 5617 5616 5615 5615 5615 5615 5615 5616 5616 5616 5616 5616 5617 5618 5618 5616 5614 5613 5614 5611 5612 5612 5611 5610 5608 5607 5605 5604 5604
5609 5612 5613 5613 5613 5612 5612 5612 5611 5610 5609 5609 5609 5609 5609 5609 5609 5609 5609 5609 5609 5610 5611 5611 5610 5608 5607 5608 5609 5604 5605 5605 5603 5602 5601 5600 5599 5599
5606 5607 5607 5607 5606 5606 5605 5605 5604 5604 5604 5603 5603 5603 5603 5603 5603 5603 5604 5602 5602 5603 5604 5604 5604 5604 5603 5603 5603 5601 5596 5598 5596 5595 5595 5595 5593 5590
5600 5600 5600 5599 5599 5598 5598 5598 5598 5597 5597 5597 5597 5597 5598 5597 5597 5597 5597 5593 5593 5596 5596 5598 5598 5596 5596 5595 5595 5595 5593 5588 5587 5587 5587 5587 5586 5585
5593 5593 5592 5592 5591 5590 5591 5591 5592 5592 5591 5591 5591 5591 5591 5591 5590 5589 5590 5589 5589 5590 5590 5591 5590 5589 5589 5588 5588 5588 5586 5583 5579 5577 5576 5576 5577 5577
5586 5586 5585 5585 5584 5583 5584 5584 5585 5585 5585 5584 5585 5585 5585 5584 5583 5583 5583 5583 5583 5582 5582 5582 5582 5582 5583 5582 5581 5580 5579 5577 5576 5574 5572 5568 5566 5565